Al Hoceima, Morocco

2:23 AM WEST on September 23, 2017 (GMT +0100)
Al Hoceima

Weather History for GMTA - January, 2014

Change the Weather History Date:

Sunday, January 19, 2014

  Actual Average Record
Temperature  
Mean Temperature 56 °F -  
Max Temperature 63 °F 60 °F 71 °F (1997)
Min Temperature 48 °F 46 °F 39 °F (2007)
Degree Days  
Heating Degree Days 8    
Growing Degree Days 6 (Base 50)    
Moisture  
Dew Point 42 °F    
Average Humidity 56    
Maximum Humidity 82    
Minimum Humidity 38    
Precipitation  
Precipitation 0.24 in - - ()
Sea Level Pressure  
Sea Level Pressure 29.72 in    
Wind  
Wind Speed 16 mph ()    
Max Wind Speed 31 mph    
Max Gust Speed 54 mph    
Visibility 6.0 miles    
Events Rain    
Averages and records for this station are not official NWS values.
T = Trace of Precipitation, MM = Missing Value Source: Averaged Metar Reports

Daily Weather History Graph

Daily Weather History Graph

Search for Another Location

Airport or City:

Trip Planner

Search our weather history database for the weather conditions in past years. The results will help you decide how hot, cold, wet, or windy it might be!

Date:

Astronomy

Jan. 19, 2014 Rise Set
Actual Time 7:22 AM WET 5:30 PM WET
Civil Twilight 6:54 AM WET 5:57 PM WET
Nautical Twilight 6:23 AM WET 6:28 PM WET
Astronomical Twilight 5:53 AM WET 6:59 PM WET
Moon 8:45 PM WET (1/19) 8:53 AM WET (1/19)
Length of Visible Light 11h 03m
Length of Day
10h 08m
Waning Gibbous, 90% of the Moon is Illuminated
Jan 19
Waning Gibbous
Jan 24
Last Quarter
Jan 30
New
Feb 6
First Quarter
Feb 14
Full

Hourly Weather History & Observations

Time (WET) Temp. Dew Point Humidity Pressure Visibility Wind Dir Wind Speed Gust Speed Precip Events Conditions
12:00 AM 55.4 °F 41.0 °F 58% 29.65 in 6.2 mi South 4.6 mph - N/A   Mostly Cloudy
6:00 AM 58 °F 44 °F 49% 29.40 in 4 mi SW 18.4 mph - - Rain Light Rain
6:00 AM 57.2 °F 42.8 °F 59% 29.39 in 3.7 mi SW 18.4 mph - N/A Rain Light Rain
6:50 AM 53.6 °F 48.2 °F 82% 29.44 in 3.7 mi West 18.4 mph 31.1 mph N/A Rain Rain
7:00 AM 53.6 °F 48.2 °F 82% 29.44 in 3.7 mi West 18.4 mph 31.1 mph N/A Rain Rain
7:05 AM 53.6 °F 48.2 °F 82% 29.44 in 3.7 mi West 18.4 mph 31.1 mph N/A Rain Rain
8:00 AM 59.0 °F 46.4 °F 63% 29.44 in 6.2 mi West 28.8 mph 49.5 mph N/A   Scattered Clouds
9:00 AM 58 °F 43 °F 47% 29.55 in 6 mi West 31.1 mph - - Rain Light Rain
9:00 AM 59.0 °F 42.8 °F 55% 29.53 in 6.2 mi West 31.1 mph 51.8 mph N/A   Scattered Clouds
10:00 AM 59.0 °F 41.0 °F 51% 29.59 in 6.2 mi WNW 28.8 mph 54.1 mph N/A   Scattered Clouds
11:00 AM 59.0 °F 42.8 °F 55% 29.65 in 6.2 mi WNW 26.5 mph 49.5 mph N/A   Partly Cloudy
12:00 PM 59 °F 42 °F 43% 29.70 in 6 mi West 21.9 mph - -   Partly Cloudy
12:00 PM 59.0 °F 42.8 °F 55% 29.68 in 6.2 mi South 21.9 mph 38.0 mph N/A   Partly Cloudy
1:00 PM 60.8 °F 41.0 °F 48% 29.71 in 6.2 mi West 21.9 mph 40.3 mph N/A   Partly Cloudy
2:00 PM 62.6 °F 42.8 °F 48% 29.74 in - West 16.1 mph 31.1 mph N/A   Partly Cloudy
3:00 PM 60 °F 41 °F 38% 29.78 in 9 mi West 21.9 mph - -   Partly Cloudy
3:00 PM 59.0 °F 41.0 °F 51% 29.77 in 6.2 mi West 21.9 mph 35.7 mph N/A   Partly Cloudy
4:00 PM 60.8 °F 42.8 °F 52% 29.80 in 6.2 mi WNW 19.6 mph 33.4 mph N/A   Partly Cloudy
5:00 PM 59.0 °F 41.0 °F 51% 29.83 in 6.2 mi WNW 17.3 mph 33.4 mph N/A   Partly Cloudy
6:00 PM 58 °F 42 °F 44% 29.90 in 9 mi WNW 16.1 mph - -   Scattered Clouds
6:00 PM 59.0 °F 42.8 °F 55% 29.89 in 6.2 mi WNW 16.1 mph 29.9 mph N/A   Partly Cloudy
7:00 PM 59.0 °F 41.0 °F 51% 29.92 in 6.2 mi West 11.5 mph 26.5 mph N/A   Partly Cloudy
7:43 PM 57.2 °F 42.8 °F 59% 29.98 in 6.2 mi West 9.2 mph - N/A   Partly Cloudy
8:00 PM 57.2 °F 42.8 °F 59% 29.98 in 6.2 mi West 9.2 mph - N/A   Partly Cloudy
9:00 PM 54 °F 39 °F 46% 30.01 in 9 mi WSW 4.6 mph - -   Scattered Clouds
9:00 PM 53.6 °F 39.2 °F 58% 30.01 in 6.2 mi WSW 4.6 mph - N/A   Scattered Clouds
10:00 PM 51.8 °F 39.2 °F 62% 30.01 in 6.2 mi West 4.6 mph - N/A   Scattered Clouds
11:00 PM 48.2 °F 37.4 °F 66% 30.04 in 6.2 mi WSW 4.6 mph - N/A   Partly Cloudy